Funchal, Portugal

6:34 PM WET on December 15, 2018 (GMT +0000)
Madeira

Weather History for LPMA - October, 2018

Change the Weather History Date:

Friday, October 12, 2018

  Actual Average (LPPS) Record (LPPS)
Temperature  
Mean Temperature 73 °F -  
Max Temperature 77 °F 72 °F 78 °F (2017)
Min Temperature 69 °F 65 °F 63 °F (2013)
Cooling Degree Days 8    
Growing Degree Days 23 (Base 50)    
Moisture  
Dew Point 66 °F    
Average Humidity 75    
Maximum Humidity 83    
Minimum Humidity 60    
Precipitation  
Precipitation 0.00 in - - ()
Sea Level Pressure  
Sea Level Pressure 30.04 in    
Wind  
Wind Speed 10 mph ()    
Max Wind Speed 27 mph    
Max Gust Speed -    
Visibility 7.3 miles    
Events      
Averages and records for this station are not official NWS values.
T = Trace of Precipitation, MM = Missing Value Source: Averaged Metar Reports

Daily Weather History Graph

Daily Weather History Graph

Search for Another Location

Airport or City:

Astronomy

Oct. 12, 2018 Rise Set
Actual Time 8:08 AM WEST 7:37 PM WEST
Civil Twilight 7:44 AM WEST 8:02 PM WEST
Nautical Twilight 7:15 AM WEST 8:31 PM WEST
Astronomical Twilight 6:46 AM WEST 8:59 PM WEST
Moon 11:22 AM WEST (10/12) 10:15 PM WEST (10/12)
Length of Visible Light 12h 18m
Length of Day
11h 29m
Waxing Crescent, 13% of the Moon is Illuminated
Oct 12
Waxing Crescent
Oct 16
First Quarter
Oct 24
Full
Oct 31
Last Quarter
Nov 7
New

Hourly Weather History & Observations

Time (WEST) Temp. Dew Point Humidity Pressure Visibility Wind Dir Wind Speed Gust Speed Precip Events Conditions
12:00 AM 71.6 °F 64.4 °F 78% 30.04 in - NNW 4.6 mph - N/A   Clear
1:00 AM 71 °F 63 °F 70% 30.05 in 12 mi NNW 4.5 mph - -   Scattered Clouds
1:00 AM 69.8 °F 64.4 °F 83% 30.04 in - WNW 3.5 mph - N/A   Clear
1:30 AM 69.8 °F 64.4 °F 83% 30.04 in - NW 3.5 mph - N/A   Clear
2:00 AM 69.8 °F 64.4 °F 83% 30.04 in - Variable 2.3 mph - N/A   Clear
2:30 AM 69.8 °F 64.4 °F 83% 30.04 in - Variable 2.3 mph - N/A   Clear
3:00 AM 69.8 °F 64.4 °F 83% 30.04 in - NW 4.6 mph - N/A   Clear
3:30 AM 69.8 °F 64.4 °F 83% 30.04 in 6.2 mi Variable 3.5 mph - N/A   Partly Cloudy
4:00 AM 71 °F 64 °F 72% 30.04 in 12 mi NNE 4.5 mph - -   Scattered Clouds
4:00 AM 69.8 °F 64.4 °F 83% 30.04 in 6.2 mi North 3.5 mph - N/A   Partly Cloudy
5:00 AM 69.8 °F 64.4 °F 83% 30.04 in 6.2 mi Variable 2.3 mph - N/A   Partly Cloudy
5:30 AM 69.8 °F 62.6 °F 78% 30.04 in 6.2 mi Variable 1.2 mph - N/A   Partly Cloudy
6:00 AM 69.8 °F 62.6 °F 78% 30.01 in 6.2 mi Calm Calm - N/A   Partly Cloudy
6:30 AM 69.8 °F 62.6 °F 78% 30.01 in 6.2 mi WSW 3.5 mph - N/A   Partly Cloudy
7:00 AM 72 °F 63 °F 67% 30.04 in 12 mi West 8.9 mph - -   Scattered Clouds
7:00 AM 73.4 °F 62.6 °F 69% 30.04 in 6.2 mi Variable 3.5 mph - N/A   Partly Cloudy
7:30 AM 71.6 °F 62.6 °F 73% 30.04 in 6.2 mi Variable 6.9 mph - N/A   Partly Cloudy
8:30 AM 73.4 °F 60.8 °F 65% 30.04 in 6.2 mi NNE 4.6 mph - N/A   Partly Cloudy
9:00 AM 73.4 °F 62.6 °F 69% 30.06 in 6.2 mi NNE 3.5 mph - N/A   Partly Cloudy
10:00 AM 76 °F 65 °F 60% 30.08 in 12 mi North 4.5 mph - -   Scattered Clouds
10:00 AM 77.0 °F 64.4 °F 65% 30.06 in 6.2 mi NNE 4.6 mph - N/A   Partly Cloudy
10:30 AM 77.0 °F 66.2 °F 69% 30.06 in 6.2 mi SSW 13.8 mph - N/A   Partly Cloudy
11:00 AM 75.2 °F 68.0 °F 78% 30.06 in 6.2 mi SSW 20.7 mph - N/A   Partly Cloudy
11:30 AM 77.0 °F 68.0 °F 74% 30.06 in 6.2 mi SSW 21.9 mph - N/A   Partly Cloudy
12:00 PM 77.0 °F 68.0 °F 74% 30.06 in 6.2 mi SSW 23.0 mph - N/A   Partly Cloudy
12:30 PM 77.0 °F 68.0 °F 74% 30.06 in 6.2 mi SSW 23.0 mph - N/A   Partly Cloudy
1:00 PM 77 °F 67 °F 65% 30.08 in 12 mi SW 26.8 mph - -   Scattered Clouds
1:00 PM 77.0 °F 68.0 °F 74% 30.06 in 6.2 mi SSW 24.2 mph - N/A   Partly Cloudy
1:30 PM 77.0 °F 68.0 °F 74% 30.06 in 6.2 mi SSW 24.2 mph - N/A   Partly Cloudy
2:00 PM 77.0 °F 68.0 °F 74% 30.06 in 6.2 mi SSW 25.3 mph - N/A   Partly Cloudy
2:30 PM 77.0 °F 68.0 °F 74% 30.06 in 6.2 mi SSW 24.2 mph - N/A   Partly Cloudy
3:00 PM 77.0 °F 69.8 °F 78% 30.04 in 6.2 mi SSW 24.2 mph - N/A   Partly Cloudy
3:30 PM 77.0 °F 68.0 °F 74% 30.04 in 6.2 mi SSW 24.2 mph - N/A   Partly Cloudy
4:00 PM 76 °F 69 °F 75% 30.04 in 12 mi SW 26.8 mph - -   Scattered Clouds
4:00 PM 77.0 °F 68.0 °F 74% 30.04 in 6.2 mi SSW 25.3 mph - N/A   Partly Cloudy
4:30 PM 77.0 °F 68.0 °F 74% 30.01 in 6.2 mi SSW 24.2 mph - N/A   Partly Cloudy
5:00 PM 75.2 °F 68.0 °F 78% 30.01 in 6.2 mi SSW 25.3 mph - N/A   Partly Cloudy
5:30 PM 75.2 °F 68.0 °F 78% 30.01 in 6.2 mi SSW 26.5 mph - N/A   Partly Cloudy
6:00 PM 75.2 °F 68.0 °F 78% 30.01 in 6.2 mi SSW 21.9 mph - N/A   Partly Cloudy
6:30 PM 75.2 °F 68.0 °F 78% 30.01 in 6.2 mi SSW 23.0 mph - N/A   Partly Cloudy
7:00 PM 75 °F 66 °F 68% 30.01 in 12 mi SW 24.6 mph - -   Scattered Clouds
7:00 PM 73.4 °F 68.0 °F 83% 30.01 in 6.2 mi SSW 23.0 mph - N/A   Partly Cloudy
7:30 PM 73.4 °F 66.2 °F 78% 30.01 in 6.2 mi SSW 21.9 mph - N/A   Partly Cloudy
8:30 PM 73.4 °F 66.2 °F 78% 30.01 in 6.2 mi SSW 21.9 mph - N/A   Partly Cloudy
9:00 PM 73.4 °F 64.4 °F 73% 30.01 in 6.2 mi SSW 21.9 mph - N/A   Partly Cloudy
10:00 PM 73 °F 66 °F 72% 30.03 in 12 mi WSW 22.4 mph - -   Scattered Clouds
10:00 PM 73.4 °F 62.6 °F 69% 30.01 in 6.2 mi SW 19.6 mph - N/A   Partly Cloudy
10:30 PM 73.4 °F 66.2 °F 78% 30.01 in 6.2 mi SW 21.9 mph - N/A   Partly Cloudy
11:00 PM 73.4 °F 64.4 °F 73% 30.04 in 6.2 mi SW 16.1 mph - N/A   Scattered Clouds